Lapse_Rate
7.0 6.9 6.9 7.0 7.0 7.1 7.1 7.1 7.1 7.1 6.9 7.0 6.8 6.7 6.9 7.0 6.9 6.8 6.9 6.8 6.8 6.7 6.7 6.6 6.6 6.6 6.6 6.4 6.5 6.7 6.6 6.7
6.8 6.8 6.9 7.0 7.1 7.1 7.1 7.0 7.0 6.9 6.8 6.9 7.0 6.9 6.9 6.9 6.9 6.9 6.9 6.9 6.9 6.9 6.8 6.5 6.4 6.3 6.3 6.3 6.2 6.3 6.3 6.4
6.6 6.7 6.8 7.1 7.4 7.2 7.1 7.0 7.0 7.0 7.2 7.2 7.1 7.1 7.1 7.0 7.0 7.0 6.9 6.8 6.8 6.7 6.6 6.3 6.2 6.1 6.1 6.1 5.9 5.9 6.1 6.1
6.4 6.7 6.7 7.0 7.1 7.1 7.0 6.9 7.1 7.1 7.1 7.1 7.1 7.1 7.1 7.0 6.9 6.8 6.7 6.7 6.6 6.6 6.5 6.5 6.4 6.2 6.1 6.0 5.8 5.6 5.8 5.9
6.6 6.7 6.9 7.0 6.9 7.0 7.1 7.3 7.3 7.0 7.1 7.2 7.1 6.9 6.8 6.7 6.6 6.5 6.4 6.4 6.3 6.4 6.5 6.4 6.4 6.3 6.3 6.3 6.1 5.6 5.5 5.6
6.3 6.4 6.5 6.6 6.8 7.0 6.8 6.9 7.1 7.0 6.9 6.8 6.5 6.6 6.6 6.5 6.5 6.4 6.4 6.4 6.3 6.3 6.2 6.2 6.1 6.1 6.3 6.3 6.2 6.1 5.7 5.4
6.5 6.4 6.3 6.5 6.7 6.9 6.9 6.8 6.9 6.9 6.7 6.7 6.7 6.7 6.7 6.5 6.4 6.1 6.1 6.2 6.0 5.9 5.9 5.9 6.1 6.1 5.9 6.0 6.1 6.1 6.1 5.9
6.8 6.7 6.9 7.0 6.6 6.5 7.2 6.8 6.5 6.4 6.6 6.8 6.9 6.9 6.8 6.5 6.2 5.9 5.9 5.9 5.8 5.8 5.7 5.7 5.7 5.7 5.8 5.8 5.9 6.0 6.0 5.9
7.0 6.9 7.1 7.0 7.1 7.1 6.7 6.9 6.8 6.6 6.8 7.0 7.4 7.1 6.9 6.7 6.2 6.0 6.1 5.9 5.8 5.7 5.5 5.2 5.4 5.5 5.4 5.6 5.7 5.7 5.8 5.7
6.9 6.8 7.3 7.1 7.2 7.0 7.0 7.0 6.7 6.7 6.7 6.8 6.9 7.1 6.8 6.5 6.2 6.0 5.9 5.6 5.5 5.3 5.3 5.2 5.3 5.5 5.7 5.8 5.7 5.5 5.5 5.6
6.7 6.8 7.1 7.0 7.0 7.1 7.2 7.1 6.8 6.6 6.9 6.9 6.6 6.4 6.1 5.9 5.8 5.6 5.6 5.3 5.6 5.3 5.3 5.3 5.4 5.4 5.3 5.5 5.4 5.4 5.4 5.3
6.9 7.0 7.1 6.6 7.1 7.2 6.9 6.8 7.0 7.0 6.6 6.4 6.3 6.1 5.8 5.5 5.2 5.1 5.1 5.4 5.6 5.6 5.5 5.6 5.4 5.3 5.3 5.2 5.2 5.2 5.0 4.9
6.9 7.0 7.1 6.7 6.7 6.6 6.3 6.6 6.6 6.4 6.4 6.3 6.0 5.7 5.7 5.6 5.6 5.4 5.5 5.5 5.4 5.5 5.5 5.4 5.3 5.3 5.2 5.2 5.1 5.1 5.1 5.1
7.4 6.9 6.6 6.5 6.2 6.3 6.6 6.6 6.5 6.6 6.2 6.1 6.1 6.0 5.8 5.6 5.5 5.3 5.4 5.4 5.3 5.3 5.2 5.4 5.4 5.5 5.5 5.5 5.5 5.7 5.6 5.5
6.9 6.7 6.6 6.5 6.6 6.7 6.7 6.6 6.4 6.3 6.4 6.3 6.0 5.8 5.7 5.8 5.8 5.6 5.3 5.1 5.1 5.1 5.1 5.2 5.2 5.3 5.3 5.3 5.3 5.3 5.4 5.9
6.9 6.9 6.9 7.0 6.9 6.8 6.7 6.7 6.6 6.7 6.7 6.7 6.6 6.4 6.1 6.0 5.6 5.2 5.2 5.2 5.1 5.1 5.3 5.4 5.5 5.4 5.4 5.4 5.4 5.3 5.2 5.3
7.4 7.5 7.2 7.0 7.0 7.1 7.0 7.0 7.0 6.9 6.7 6.3 6.0 6.1 5.9 5.1 5.0 5.1 5.3 5.5 5.7 6.0 6.0 5.9 5.9 5.7 5.6 5.4 5.3 5.2 4.8 4.5
7.3 6.9 7.1 6.9 6.7 6.6 6.4 6.2 6.1 5.8 5.6 4.9 5.2 5.3 5.0 5.1 5.3 5.4 5.5 5.7 5.8 5.9 5.9 5.9 5.9 5.8 5.8 5.6 5.4 5.2 4.9 4.5
7.0 6.9 6.7 6.4 6.1 5.8 5.8 5.7 5.4 5.1 5.1 4.8 5.5 5.0 5.0 5.0 5.0 5.4 5.7 5.8 5.9 5.8 5.9 5.9 6.0 5.9 5.6 5.3 5.2 5.2 5.3 5.3
6.0 5.8 5.6 5.6 5.6 5.5 5.3 5.2 5.0 4.7 4.7 4.8 4.7 4.9 4.9 5.0 5.5 5.7 5.7 5.6 5.6 5.9 6.0 6.4 6.3 6.5 6.2 5.9 6.0 6.1 6.4 6.4
Wind_Speed
15 17 19 21 19 18 16 15 15 15 14 14 13 12 10 8 6 5 2 2 2 4 6 8 10 11 14 17 13 16 16 11
13 15 17 18 18 17 16 14 13 13 12 12 9 8 8 8 6 4 2 1 3 5 6 7 8 10 13 14 13 15 16 6
12 13 14 16 15 16 15 14 13 11 10 10 10 8 7 6 6 6 4 4 7 9 9 8 9 9 10 11 10 9 10 6
9 14 15 16 11 16 14 11 9 8 8 8 9 9 8 8 9 11 8 7 9 10 11 11 10 7 8 9 8 6 5 7
10 11 16 16 11 12 13 9 7 7 6 6 7 5 6 7 8 6 6 7 7 8 7 6 5 6 7 7 9 8 5 6
10 12 9 12 14 14 12 10 11 6 7 9 9 6 5 3 2 5 7 9 8 6 7 10 11 10 9 9 9 10 10 8
7 8 6 10 11 13 12 9 12 13 11 9 8 5 3 5 6 9 11 12 9 10 12 12 12 13 14 12 11 12 14 13
8 8 9 10 6 8 10 13 14 15 11 11 10 8 5 5 6 7 10 12 14 12 9 8 8 10 8 11 12 13 14 16
11 10 11 8 8 9 9 9 11 11 6 4 7 8 9 8 5 5 9 12 15 15 12 12 7 10 5 8 10 12 11 11
8 7 7 6 4 5 6 9 7 9 8 9 14 12 9 8 6 5 9 13 10 8 4 5 5 5 4 5 4 9 13 14
6 5 3 4 2 2 3 9 7 12 13 15 13 12 10 10 8 8 9 8 6 3 3 2 3 5 6 5 5 5 6 11
7 4 5 5 5 6 7 9 11 14 14 14 14 13 13 14 13 12 14 6 5 5 4 4 3 5 6 6 5 5 5 4
8 5 5 4 4 2 4 4 3 4 12 14 14 17 16 14 12 13 14 5 4 4 3 4 4 3 3 6 3 6 4 5
6 6 7 6 3 3 3 3 2 4 9 15 18 17 17 14 13 7 8 4 6 5 4 3 2 3 3 3 5 7 2 5
7 7 8 6 6 3 2 3 2 2 3 3 8 14 17 16 12 9 8 5 4 4 5 6 3 3 3 2 4 3 4 2
7 7 7 6 6 4 4 3 2 1 2 2 6 14 13 13 12 10 8 6 5 4 3 2 3 3 3 4 2 3 4 8
5 4 4 4 4 6 5 3 3 2 2 4 5 7 13 14 14 14 11 9 7 6 5 5 3 2 2 2 2 3 3 3
4 6 5 2 5 4 5 6 5 4 3 4 3 2 6 11 11 9 8 6 4 3 4 4 4 4 3 3 3 3 5 4
4 8 8 8 8 8 7 7 6 4 2 3 2 1 2 3 3 3 2 1 2 2 2 3 2 4 5 4 4 4 4 5
9 7 7 7 6 6 5 6 3 3 4 2 3 3 2 1 1 3 2 3 3 3 2 3 5 4 6 5 4 4 3 4
Wind_Direction
139 139 139 140 142 139 138 142 145 145 149 146 146 147 149 150 155 158 183 83 13 343 348 358 358 354 355 352 350 355 350 331
142 149 150 146 145 148 153 159 154 156 158 149 149 163 172 180 186 214 219 298 315 304 323 338 342 335 342 353 0 0 4 21
158 153 157 151 155 164 164 169 165 161 164 166 173 195 206 208 223 254 256 256 274 283 296 316 316 320 330 345 2 360 350 325
170 162 164 162 170 168 169 176 180 172 187 188 194 216 224 227 242 252 275 270 276 292 298 302 302 298 298 316 336 348 343 326
182 172 173 171 163 173 172 176 199 190 204 224 202 209 192 230 228 249 287 327 310 313 314 318 307 288 273 280 295 304 303 303
175 170 169 180 164 175 177 182 198 221 196 166 138 122 136 140 32 358 354 351 341 341 329 327 330 309 293 281 269 265 265 262
131 131 130 149 137 149 161 172 172 183 163 142 134 130 79 47 20 7 0 358 2 348 341 337 335 331 322 307 290 279 264 259
145 140 148 142 131 151 149 148 159 166 165 164 160 143 109 72 46 28 15 5 352 345 339 340 332 335 328 331 314 304 293 284
154 153 135 138 140 146 166 139 160 176 163 152 123 119 118 111 87 37 11 12 12 8 6 5 354 341 328 325 318 320 309 297
140 126 131 127 159 129 173 155 144 185 151 132 109 100 92 68 46 25 8 9 11 9 2 348 341 325 320 310 314 322 320 316
73 52 129 151 155 49 73 61 95 95 96 90 80 74 56 43 20 7 11 15 13 360 333 359 328 325 317 314 316 310 310 319
51 42 312 26 58 64 70 61 67 77 85 75 54 43 35 33 30 21 23 11 5 2 351 336 306 307 323 317 309 304 300 338
74 48 338 100 63 51 51 57 69 55 80 67 55 57 57 47 41 27 19 24 360 347 306 317 313 326 328 321 295 275 357 8
84 82 80 82 89 51 60 116 95 102 66 60 59 57 55 51 42 23 22 5 352 339 332 314 305 340 312 286 330 315 25 348
100 87 86 82 92 109 99 97 81 80 79 96 62 64 58 50 36 23 4 1 345 341 354 8 327 318 21 342 328 300 316 336
139 142 139 143 134 107 118 147 130 99 124 96 57 60 52 42 34 21 17 20 27 3 19 20 6 352 330 7 341 340 322 315
138 143 139 145 119 140 138 121 121 119 79 70 67 56 51 49 44 42 38 33 15 13 7 13 11 4 327 310 286 281 274 296
101 90 24 90 96 75 100 109 100 80 53 35 6 21 65 47 52 67 65 52 32 14 16 17 3 349 306 290 277 287 297 283
18 50 40 41 60 60 70 84 101 116 116 93 0 2 44 11 57 81 90 79 32 349 321 308 303 307 297 297 293 282 287 281
61 66 63 65 86 95 107 139 160 185 199 128 159 160 183 191 93 182 220 265 275 303 315 302 301 296 290 284 276 264 253 286